EW5586 Weather Reports


time (UTC)temp
F
wind
direction
speed
knots
gust
knots
rain 1hr
in
rain 24hr
in
rain mn
in
humidity
%
barometer
mb
20260903022212 71 350 0.0 0.0 0.00 0.00 0.00 95 1011.1
20260903020654 71 350 0.0 5.2 0.00 0.00 0.00 94 1010.8
20260903020149 71 350 0.9 5.2 0.00 0.00 0.00 94 1010.9
20260903015137 72 153 2.6 9.6 0.00 0.00 0.00 94 1010.9
20260903014630 72 170 2.6 9.6 0.00 0.00 0.00 93 1010.7
20260903014130 72 217 2.6 9.6 0.00 0.00 0.00 93 1010.7
20260903013631 72 182 0.0 5.2 0.00 0.00 0.00 92 1010.4
20260903013131 72 171 0.9 4.3 0.00 0.00 0.00 92 1010.4
20260903012630 72 169 3.5 7.8 0.00 0.00 0.00 92 1010.2
20260903011128 73 192 7.8 15.6 0.00 0.00 0.00 90 1009.9
20260903010628 73 153 7.8 13.0 0.00 0.00 0.00 90 1010.2
20260903005628 73 171 8.7 13.9 0.00 0.00 0.00 90 1010.5
20260903005127 74 169 8.7 13.9 0.00 0.00 0.00 90 1010.6
20260903004627 74 141 7.8 13.9 0.00 0.00 0.00 90 1010.6
20260903004125 74 169 6.1 10.4 0.00 0.00 0.00 90 1010.8
20260903003625 74 162 6.1 9.6 0.00 0.00 0.00 90 1010.9
20260903003125 74 159 7.8 13.0 0.00 0.00 0.00 90 1010.8
20260903002622 74 152 8.7 13.0 0.00 0.00 0.00 89 1010.7
20260903002123 74 165 9.6 13.9 0.00 0.00 0.00 89 1010.7
20260903001622 74 161 9.6 14.8 0.00 0.00 0.00 89 1010.8
20260903001123 74 169 9.6 14.8 0.00 0.00 0.00 89 1010.7
20260903000623 74 161 10.4 16.5 0.00 0.00 0.00 89 1010.6
20260903000122 74 142 11.3 16.5 0.00 0.00 0.00 89 1010.4
20260902234616 74 157 6.1 9.6 0.00 0.00 0.00 92 1010.8
20260902234110 74 157 5.2 8.7 0.00 0.00 0.00 92 1010.9
20260902232556 74 160 3.5 5.2 0.00 0.00 0.00 91 1010.9
20260902231538 75 172 2.6 5.2 0.00 0.00 0.00 89 1011.0
20260902231030 75 0 1.7 4.3 0.00 0.00 0.00 88 1010.9
20260902230524 75 165 0.9 4.3 0.00 0.00 0.00 87 1011.0
20260902230018 76 166 0.0 3.5 0.00 0.00 0.00 86 1010.9
20260902225006 76 177 0.0 0.9 0.00 0.00 0.00 86 1010.9
20260902224500 76 155 0.0 0.9 0.00 0.00 0.00 86 1011.0
20260902223955 75 155 0.0 0.0 0.00 0.00 0.00 86 1011.0
20260902223448 75 151 0.0 0.0 0.00 0.00 0.00 87 1010.7
20260902222943 75 200 0.0 0.0 0.00 0.00 0.00 87 1010.7
20260902222436 75 200 0.0 0.0 0.00 0.00 0.00 88 1010.7
20260902221931 75 217 0.0 0.0 0.00 0.00 0.00 88 1010.8
20260902221424 75 218 0.0 2.6 0.00 0.00 0.00 88 1010.8
20260902214908 76 173 0.0 2.6 0.00 0.00 0.00 84 1011.2
20260902214410 76 174 0.0 2.6 0.00 0.00 0.00 83 1011.6
20260902213906 76 192 0.9 2.6 0.00 0.00 0.00 83 1011.8
20260902212902 76 196 0.9 4.3 0.00 0.00 0.00 84 1011.9
20260902211904 76 217 2.6 5.2 0.00 0.00 0.00 84 1012.0
20260902210902 77 165 4.3 10.4 0.00 0.00 0.00 83 1012.0
20260902210402 77 170 4.3 10.4 0.00 0.00 0.00 80 1012.1
20260902205902 77 228 3.5 10.4 0.00 0.00 0.00 79 1012.4
20260902204902 78 224 3.5 10.4 0.00 0.00 0.00 80 1013.1
20260902204402 78 252 2.6 10.4 0.00 0.00 0.00 80 1013.4
20260902203902 78 200 2.6 8.7 0.00 0.00 0.00 80 1013.2
20260902203402 78 214 3.5 11.3 0.00 0.00 0.00 80 1013.1
20260902202900 77 223 3.5 11.3 0.00 0.00 0.00 80 1012.9
20260902202400 77 225 4.3 12.2 0.00 0.00 0.00 81 1012.8
20260902201858 77 0 4.3 12.2 0.00 0.00 0.00 82 1012.7
20260902201359 77 144 4.3 8.7 0.00 0.00 0.00 82 1012.6
20260902200858 77 148 4.3 7.8 0.00 0.00 0.00 83 1012.7
20260902200358 77 186 5.2 7.8 0.00 0.00 0.00 82 1012.5
20260902195859 77 148 3.5 7.8 0.00 0.00 0.00 81 1012.5
20260902194858 78 164 2.6 7.8 0.00 0.00 0.00 79 1013.2
20260902194359 77 224 1.7 7.0 0.00 0.00 0.00 80 1013.4
20260902193858 77 211 1.7 6.1 0.00 0.00 0.00 81 1013.4
20260902193358 77 169 3.5 7.8 0.00 0.00 0.00 82 1013.4
20260902192858 77 153 3.5 7.8 0.00 0.00 0.00 81 1013.3
20260902192359 78 175 4.3 8.7 0.00 0.00 0.00 80 1013.3
20260902191858 78 212 4.3 8.7 0.00 0.00 0.00 79 1013.4
20260902191358 78 166 4.3 8.7 0.00 0.00 0.00 78 1013.4
20260902190858 78 185 4.3 7.8 0.00 0.00 0.00 78 1013.4
20260902190358 78 143 4.3 8.7 0.00 0.00 0.00 79 1013.5
20260902185900 77 192 6.1 8.7 0.00 0.00 0.00 79 1013.5
20260902185354 77 0 5.2 8.7 0.00 0.00 0.00 80 1013.4
20260902184854 77 225 5.2 8.7 0.00 0.00 0.00 83 1013.4
20260902184354 78 161 6.1 9.6 0.00 0.00 0.00 83 1013.4
20260902183857 78 173 7.0 9.6 0.00 0.00 0.00 81 1013.3
20260902183354 78 173 5.2 9.6 0.00 0.00 0.00 82 1013.3
20260902182854 78 171 4.3 7.8 0.00 0.00 0.00 84 1013.4
20260902181854 77 161 6.1 9.6 0.00 0.00 0.00 85 1013.5
20260902180854 76 159 5.2 10.4 0.00 0.00 0.00 87 1013.4
20260902174853 76 0 4.3 7.0 0.00 0.00 0.00 86 1013.7
20260902174353 76 196 5.2 8.7 0.00 0.00 0.00 86 1013.9
20260902173853 76 170 5.2 8.7 0.00 0.00 0.00 85 1013.9
20260902173352 77 176 6.1 11.3 0.00 0.00 0.00 84 1014.0
20260902172852 77 167 7.0 11.3 0.00 0.00 0.00 85 1014.1
20260902172353 77 174 7.0 10.4 0.00 0.00 0.00 85 1014.3
20260902171851 76 154 7.0 12.2 0.00 0.00 0.00 85 1014.1
20260902171351 76 160 7.0 12.2 0.00 0.00 0.00 85 1014.2
20260902170349 76 177 7.8 13.0 0.00 0.00 0.00 86 1014.2
20260902165849 76 200 7.8 12.2 0.00 0.00 0.00 87 1014.4
20260902165347 75 151 7.8 12.2 0.00 0.00 0.00 87 1014.4
20260902164849 76 157 7.0 11.3 0.00 0.00 0.00 86 1014.4
20260902164344 75 172 7.0 11.3 0.00 0.00 0.00 87 1014.3
20260902163845 75 164 7.0 11.3 0.00 0.00 0.00 88 1014.5
20260902162344 74 164 7.8 12.2 0.00 0.00 0.00 88 1014.6
20260902161842 74 199 6.1 11.3 0.00 0.00 0.00 89 1014.5
20260902161336 75 151 1.7 9.6 0.00 0.00 0.00 88 1014.6
20260902160835 75 163 1.7 6.1 0.00 0.00 0.00 87 1014.6
20260902160334 75 163 3.5 6.1 0.00 0.00 0.00 86 1014.7
20260902155831 75 196 3.5 6.1 0.00 0.00 0.00 86 1014.5
20260902155330 75 230 4.3 7.0 0.00 0.00 0.00 86 1014.5
20260902154830 75 197 4.3 7.0 0.00 0.00 0.00 86 1014.5
20260902154330 76 215 3.5 7.0 0.00 0.00 0.00 86 1014.5
20260902153828 76 225 3.5 7.8 0.00 0.00 0.00 87 1014.5
20260902153326 76 157 4.3 8.7 0.00 0.00 0.00 87 1014.4
20260902152826 75 171 5.2 8.7 0.00 0.00 0.00 86 1014.3
20260902151826 75 157 3.5 8.7 0.00 0.00 0.00 87 1014.5
20260902151326 74 171 2.6 7.0 0.00 0.00 0.00 87 1014.4
20260902150828 74 178 2.6 9.6 0.00 0.00 0.00 88 1014.4
20260902150326 74 198 3.5 9.6 0.00 0.00 0.00 88 1014.3
20260902145325 74 171 0.9 5.2 0.00 0.00 0.00 89 1014.5
20260902143813 73 181 1.7 4.3 0.00 0.00 0.00 90 1014.9
20260902142801 72 182 1.7 5.2 0.00 0.00 0.00 90 1014.9
20260902141749 72 180 1.7 5.2 0.00 0.00 0.00 90 1015.1
20260902141243 72 173 1.7 5.2 0.00 0.00 0.00 90 1015.2
20260902140737 72 163 0.9 4.3 0.00 0.00 0.00 90 1015.1
20260902140232 71 167 0.0 3.5 0.00 0.00 0.00 91 1015.2
20260902135725 71 171 0.0 3.5 0.00 0.00 0.00 90 1015.3
20260902135219 71 208 0.0 2.6 0.00 0.00 0.00 91 1015.5
20260902134713 71 198 0.0 3.5 0.00 0.00 0.00 91 1015.6
20260902133702 71 199 0.0 2.6 0.00 0.00 0.00 91 1015.7
20260902133156 70 198 0.0 1.7 0.00 0.00 0.00 91 1015.6
20260902132649 70 212 0.0 0.0 0.00 0.00 0.00 92 1015.6
20260902132143 70 171 0.0 0.9 0.00 0.00 0.00 92 1015.6
20260902131637 70 171 0.0 0.9 0.00 0.00 0.00 91 1015.7
20260902131131 70 171 0.0 0.0 0.00 0.00 0.00 92 1015.7
20260902130625 70 171 0.0 0.0 0.00 0.00 0.00 92 1015.7
20260902130119 69 171 0.0 0.0 0.00 0.00 0.00 92 1015.8
20260902125614 69 171 0.0 0.9 0.00 0.00 0.00 93 1015.9
20260902125107 69 171 0.0 1.7 0.00 0.00 0.00 92 1016.0
20260902124601 69 171 0.0 1.7 0.00 0.00 0.00 92 1016.0
20260902124055 69 172 0.0 1.7 0.00 0.00 0.00 92 1015.9
20260902123554 69 175 0.9 3.5 0.00 0.00 0.00 93 1015.8
20260902123043 69 163 0.9 3.5 0.00 0.00 0.00 93 1015.7
20260902122537 69 0 0.0 2.6 0.00 0.00 0.00 93 1015.6
20260902121025 68 165 0.0 4.3 0.00 0.00 0.00 94 1015.7
20260902120524 68 178 0.0 0.0 0.00 0.00 0.00 94 1015.8
20260902120023 68 178 0.0 0.0 0.00 0.00 0.00 94 1015.8
20260902115023 68 177 0.0 0.0 0.00 0.00 0.00 94 1015.9
20260902114523 68 177 0.0 0.0 0.00 0.00 0.00 94 1015.8
20260902114024 68 177 0.0 0.0 0.00 0.00 0.00 94 1015.8
20260902113523 68 177 0.0 0.0 0.00 0.00 0.00 94 1015.7
20260902113022 68 177 0.0 0.0 0.00 0.00 0.00 94 1015.4
20260902112522 68 177 0.0 0.0 0.00 0.00 0.00 94 1015.2
20260902112021 68 177 0.0 0.0 0.00 0.00 0.00 94 1015.0
20260902111521 68 177 1.7 0.0 0.00 0.00 0.00 94 1015.0
20260902111021 0 0.0 0.0 0.00 0.00 0.00 1015.3
20260902110519 0 0.0 0.0 0.00 0.00 0.00 1015.1
20260902110017 0 0.0 0.0 0.00 0.00 0.00 1015.0
20260902105506 0 0.0 0.0 0.00 0.00 0.00 1014.9
20260902104926 0 0.0 0.0 0.00 0.00 0.00 1015.0
20260902104424 0 0.0 0.0 0.00 0.00 0.00 1015.1
20260902103921 0 0.0 0.0 0.00 0.00 0.00 1015.3
20260902103328 0 0.0 0.0 0.00 0.00 0.00 1015.4
20260902102320 0 0.0 0.0 0.00 0.00 0.00 1015.6
20260902101723 0 0.0 0.0 0.00 0.00 0.00 1015.8
20260902101221 0 0.0 0.0 0.00 0.00 0.00 1015.8
20260902095112 0 0.0 0.0 0.00 0.00 0.00 1015.6
20260902094518 0 0.0 0.0 0.00 0.00 0.00 1015.6
20260902094013 0 0.0 0.0 0.00 0.00 0.00 1015.5
20260902093426 0 0.0 0.0 0.00 0.00 0.00 1015.5
20260902092912 0 0.0 0.0 0.00 0.00 0.00 1015.7
20260902092320 0 0.0 0.0 0.00 0.00 0.00 1015.8
20260902091809 0 0.0 0.0 0.00 0.00 0.00 1015.9
20260902091303 0 0.0 0.0 0.00 0.00 0.00 1015.9
20260902090712 0 0.0 0.0 0.00 0.00 0.00 1015.9
20260902085021 0 0.0 0.0 0.00 0.00 0.00 1015.9
20260902084519 0 0.0 0.0 0.00 0.00 0.00 1015.8
20260902083925 0 0.0 0.0 0.00 0.00 0.00 1015.9
20260902083359 0 0.0 0.0 0.00 0.00 0.00 1016.0
20260902082822 0 0.0 0.0 0.00 0.00 0.00 1016.0
20260902082225 0 0.0 0.0 0.00 0.00 0.00 1016.0
20260902081723 0 0.0 0.0 0.00 0.00 0.00 1015.9
20260902081224 68 195 1.7 5.2 0.00 0.00 0.00 93 1015.8
20260902080217 68 195 1.7 4.3 0.00 0.00 0.00 93 1016.0
20260902075715 68 195 1.7 5.2 0.00 0.00 0.00 93 1016.0
20260902075211 69 156 2.6 5.2 0.00 0.00 0.00 93 1015.9
20260902074711 69 166 2.6 5.2 0.00 0.00 0.00 93 1015.9
20260902074211 69 163 3.5 6.1 0.00 0.00 0.00 93 1015.8
20260902073707 69 149 3.5 7.0 0.00 0.00 0.00 93 1015.7
20260902073207 69 187 4.3 7.0 0.00 0.00 0.00 93 1015.7
20260902072707 69 154 4.3 8.7 0.00 0.00 0.00 94 1015.7
20260902071707 69 147 4.3 7.0 0.00 0.00 0.00 94 1015.7
20260902071207 68 162 4.3 7.0 0.00 0.00 0.00 94 1015.6
20260902070707 68 160 3.5 7.0 0.00 0.00 0.00 94 1015.7
20260902070207 68 173 2.6 6.1 0.00 0.00 0.00 94 1015.7
20260902065707 68 163 2.6 5.2 0.00 0.00 0.00 95 1015.6
20260902064202 68 157 3.5 7.0 0.00 0.00 0.00 95 1015.6
20260902063703 68 166 2.6 6.1 0.00 0.00 0.00 95 1015.7
20260902063203 68 157 0.9 6.1 0.00 0.00 0.00 96 1015.7
20260902062703 67 161 0.9 4.3 0.00 0.00 0.00 96 1015.8
20260902062203 66 38 0.9 3.5 0.00 0.00 0.00 96 1015.9
20260902060703 63 5 0.0 0.0 0.00 0.00 0.00 94 1015.7
20260902060203 62 5 0.0 0.0 0.00 0.00 0.00 94 1015.8
20260902055203 62 5 0.0 0.0 0.00 0.00 0.00 93 1015.8
20260902054703 62 5 0.0 0.0 0.00 0.00 0.00 93 1015.8
20260902054202 62 5 0.0 0.0 0.00 0.00 0.00 93 1015.9
20260902053203 63 5 0.0 0.0 0.00 0.00 0.00 92 1015.8
20260902052703 63 5 0.0 0.0 0.00 0.00 0.00 92 1015.7
20260902052200 63 5 0.0 0.0 0.00 0.00 0.00 92 1015.7
20260902051701 63 5 0.0 0.0 0.00 0.00 0.00 92 1015.7
20260902051159 63 5 0.0 0.0 0.00 0.00 0.00 92 1015.7
20260902045653 64 5 0.0 0.0 0.00 0.00 0.00 92 1015.8
20260902045151 64 5 0.0 0.0 0.00 0.00 0.00 92 1015.7
20260902044651 64 5 0.0 0.0 0.00 0.00 0.00 91 1015.6
20260902044156 64 5 0.0 0.0 0.00 0.00 0.00 91 1015.5
20260902043648 64 5 0.0 0.0 0.00 0.00 0.00 91 1015.6
20260902043149 64 5 0.0 0.0 0.00 0.00 0.00 91 1015.6
20260902042647 64 5 0.0 0.0 0.00 0.00 0.00 91 1015.6
20260902042147 64 5 0.0 0.0 0.00 0.00 0.00 91 1015.6
20260902041645 64 5 0.0 0.0 0.00 0.00 0.00 90 1015.6
20260902041145 64 5 0.0 0.0 0.00 0.00 0.00 90 1015.5
20260902040643 64 5 0.0 0.0 0.00 0.00 0.00 90 1015.5
20260902040136 64 5 0.0 0.0 0.00 0.00 0.00 90 1015.4
20260902035630 64 5 0.0 0.0 0.00 0.00 0.00 89 1015.4
20260902035124 64 5 0.0 0.0 0.00 0.00 0.00 89 1015.5
20260902034619 65 0 0.0 0.0 0.00 0.00 0.00 89 1015.5
20260902034112 65 0 0.0 0.0 0.00 0.00 0.00 89 1015.5
20260902033606 65 0 0.0 0.0 0.00 0.00 0.00 89 1015.4
20260902033101 65 0 0.0 0.0 0.00 0.00 0.00 89 1015.5
20260902032557 65 0 0.0 0.0 0.00 0.00 0.00 89 1015.4
20260902031542 65 0 0.0 0.0 0.00 0.00 0.00 89 1015.5
20260902031037 65 0 0.0 0.0 0.00 0.00 0.00 89 1015.5
20260902030530 65 0 0.0 0.0 0.00 0.00 0.00 89 1015.4
20260902030024 65 0 0.0 0.0 0.00 0.00 0.00 89 1015.4
20260902025518 65 0 0.0 0.0 0.00 0.00 0.00 89 1015.3
20260902025012 65 0 0.0 0.0 0.00 0.00 0.00 89 1015.2
20260902024506 65 0 0.0 0.0 0.00 0.00 0.00 89 1015.2
20260902024001 65 0 0.0 0.0 0.00 0.00 0.00 89 1015.3